Location: Czekanka
(50.4925°N, 19.2643°E)
Time: 07:31:35
(UTC+00:00)

SL-16 R/B - Pass Details

Date: 22 September 2024
Orbit: 842 x 846 km, 71.0° (Epoch: 05 October)

Event Time Altitude Azimuth Distance (km) Brightness Sun altitude
Rises 18:19:44 0° 212° (SSW) 3,393 5.5 -16.3°
Reaches altitude 10° 18:22:11 10° 214° (SW) 2,462 4.8 -16.7°
Maximum altitude 18:27:50 76° 300° (WNW) 874 2.4 -17.5°
Drops below altitude 10° 18:33:32 10° 27° (NNE) 2,475 4.6 -18.4°
Sets 18:36:00 0° 30° (NNE) 3,413 5.3 -18.7°
